Flight Briefing for CPX83

Departure Arrival
Auckland International Airport (NZAA)
Click to view FAA NOTAMS
Daniel K Inouye International Airport (PHNL)
Click to view FAA NOTAMS
Departure Time Arrival Time
N/A N/A
Aircraft Distance
B747-400BCF 3832nm
Departure METAR Arrival METAR
NZAA 230700Z AUTO 19005KT 9999 BKN041/// 15/13 Q1025 NOSIG PHNL 230653Z 05003KT 10SM FEW036 27/21 A3004 RMK AO2 SLP170 T02720206 $
Suggested Route
TARIB G347 UBRAX OVLAD CUFFY A579 CROBY A579 CHEEM A579 CARRP OPACA4


View recent IFR Routes data
Notes



Charts and Procedures

Charts for NZAA
No chart available
Charts for PHNL
No chart available

Windy.com Weather Map